DW2921 Weather Reports


Display with metric or nautical units.
time (UTC)temp
F
wind
direction
speed
MPH
gust
MPH
rain 1hr
in
rain 24hr
in
rain mn
in
humidity
%
barometer
mb
20190323040109 51 347 0.0 3.0 0.00 0.00 0.00 40 820.1
20190323035106 51 345 1.0 6.0 0.00 0.00 0.00 40 820.1
20190323034106 51 359 0.0 3.0 0.00 0.00 0.00 40 820.1
20190323033106 52 347 0.0 3.0 0.00 0.00 0.00 40 820.1
20190323032105 52 345 0.0 5.0 0.00 0.00 0.00 40 820.1
20190323031106 53 0 0.0 3.0 0.00 0.00 0.00 40 820.1
20190323030107 53 14 0.0 3.0 0.00 0.00 0.00 40 820.1
20190323025106 53 354 0.0 3.0 0.00 0.00 0.00 40 820.1
20190323024105 54 2 0.0 3.0 0.00 0.00 0.00 40 820.1
20190323023106 54 7 1.0 8.0 0.00 0.00 0.00 40 820.1
20190323022106 54 342 0.0 7.0 0.00 0.00 0.00 40 820.1
20190323021106 55 356 0.0 5.0 0.00 0.00 0.00 40 820.1
20190323020106 55 0 0.0 2.0 0.00 0.00 0.00 40 820.1
20190323015106 56 342 0.0 2.0 0.00 0.00 0.00 40 820.1
20190323014107 56 9 0.0 5.0 0.00 0.00 0.00 40 820.1
20190323013105 56 337 1.0 5.0 0.00 0.00 0.00 40 820.1
20190323012107 56 329 2.0 9.0 0.00 0.00 0.00 40 820.1
20190323011106 57 321 1.0 5.0 0.00 0.00 0.00 40 820.1
20190323010107 57 330 1.0 9.0 0.00 0.00 0.00 40 820.1
20190323005106 57 332 1.0 7.0 0.00 0.00 0.00 40 820.1
20190323004106 58 340 2.0 8.0 0.00 0.00 0.00 40 820.1
20190323003106 58 340 1.0 7.0 0.00 0.00 0.00 40 820.1
20190323002106 59 321 0.0 5.0 0.00 0.00 0.00 40 820.1
20190323001107 59 345 1.0 3.0 0.00 0.00 0.00 40 820.1
20190323000107 60 295 1.0 6.0 0.00 0.00 0.00 40 820.1
20190322235106 60 298 0.0 3.0 0.00 0.00 0.00 40 820.1
20190322234106 61 275 0.0 3.0 0.00 0.00 0.00 40 820.1
20190322233106 61 288 0.0 1.0 0.00 0.00 0.00 40 820.1
20190322232106 61 308 0.0 6.0 0.00 0.00 0.00 40 820.1
20190322231106 63 256 0.0 5.0 0.00 0.00 0.00 40 820.1
20190322230107 63 283 0.0 9.0 0.00 0.01 0.00 40 820.1
20190322225106 63 327 0.0 3.0 0.00 0.01 0.00 40 820.1
20190322224105 63 273 0.0 6.0 0.00 0.01 0.00 40 820.1
20190322223106 63 257 0.0 5.0 0.00 0.01 0.00 40 820.1
20190322222106 63 326 1.0 7.0 0.00 0.01 0.00 40 820.1
20190322221105 63 264 0.0 3.0 0.00 0.01 0.00 40 820.1
20190322220114 64 308 0.0 0.0 0.00 0.01 0.00 40 820.1
20190322215106 64 258 0.0 0.0 0.00 0.01 0.00 40 820.1
20190322214106 64 278 0.0 0.0 0.00 0.02 0.00 40 820.1
20190322213105 64 297 0.0 0.0 0.00 0.02 0.00 40 820.1
20190322212106 64 262 0.0 0.0 0.00 0.02 0.00 40 820.1
20190322211106 64 348 0.0 12.0 0.00 0.02 0.00 40 820.1
20190322210107 64 258 1.0 15.0 0.00 0.03 0.00 40 820.1
20190322205106 65 251 1.0 10.0 0.00 0.03 0.00 40 820.1
20190322204106 64 324 0.0 0.0 0.00 0.03 0.00 40 820.1
20190322203106 63 264 0.0 0.0 0.00 0.03 0.00 40 820.1
20190322202105 64 269 0.0 8.0 0.00 0.03 0.00 40 820.1
20190322201106 64 318 0.0 10.0 0.00 0.03 0.00 40 820.1
20190322200107 64 280 0.0 6.0 0.00 0.03 0.00 40 820.1
20190322195106 64 269 1.0 8.0 0.00 0.03 0.00 40 820.1
20190322194106 64 336 0.0 8.0 0.00 0.03 0.00 40 820.1
20190322193106 63 265 1.0 5.0 0.00 0.03 0.00 40 820.1
20190322192106 63 260 0.0 3.0 0.00 0.03 0.00 40 820.1
20190322191106 63 256 0.0 0.0 0.00 0.03 0.00 40 820.1
20190322190107 62 343 0.0 0.0 0.00 0.03 0.00 40 820.1
20190322185106 62 303 0.0 0.0 0.00 0.03 0.00 40 820.1
20190322184106 61 272 0.0 8.0 0.00 0.03 0.00 40 820.1
20190322183106 61 256 1.0 6.0 0.00 0.03 0.00 40 820.1
20190322182106 60 263 0.0 3.0 0.00 0.03 0.00 40 820.1
20190322181106 59 216 0.0 6.0 0.00 0.03 0.00 40 820.1
20190322180107 59 230 1.0 9.0 0.00 0.03 0.00 40 820.1
20190322175106 57 276 1.0 8.0 0.00 0.03 0.00 40 820.1
20190322174106 56 265 1.0 6.0 0.00 0.05 0.00 40 820.1
20190322173106 56 242 0.0 8.0 0.00 0.06 0.00 40 820.1
20190322172106 55 221 1.0 6.0 0.00 0.06 0.00 40 820.1
20190322171106 55 238 0.0 3.0 0.00 0.06 0.00 40 820.1
20190322170107 55 261 0.0 5.0 0.00 0.06 0.00 40 820.1
20190322165106 54 181 0.0 7.0 0.00 0.06 0.00 40 820.1
20190322164106 53 234 1.0 7.0 0.00 0.06 0.00 40 820.1
20190322163106 53 290 1.0 6.0 0.00 0.06 0.00 40 820.1
20190322162106 52 260 1.0 6.0 0.00 0.06 0.00 40 820.1
20190322161106 52 201 0.0 3.0 0.00 0.06 0.00 40 820.1
20190322160107 51 238 0.0 6.0 0.00 0.06 0.00 40 820.1
20190322155106 50 264 1.0 6.0 0.00 0.06 0.00 40 820.1
20190322154106 50 253 1.0 6.0 0.00 0.06 0.00 40 820.1
20190322153106 49 252 2.0 10.0 0.00 0.06 0.00 40 820.1
20190322152106 49 252 0.0 3.0 0.00 0.06 0.00 40 820.1
20190322151106 48 221 0.0 6.0 0.00 0.06 0.00 40 820.1
20190322150106 48 251 0.0 3.0 0.00 0.06 0.00 40 820.1
20190322145106 47 235 1.0 5.0 0.00 0.06 0.00 40 820.1
20190322144107 47 259 1.0 7.0 0.00 0.06 0.00 40 820.1
20190322143106 46 236 0.0 5.0 0.00 0.06 0.00 40 820.1
20190322142106 45 245 0.0 3.0 0.00 0.06 0.00 40 820.1
20190322141106 45 201 0.0 3.0 0.00 0.06 0.00 40 820.1
20190322140107 44 213 1.0 5.0 0.00 0.06 0.00 40 820.1
20190322135106 44 216 1.0 3.0 0.00 0.06 0.00 40 820.1
20190322134106 44 210 1.0 7.0 0.00 0.06 0.00 40 820.1
20190322133106 43 222 1.0 3.0 0.00 0.06 0.00 40 820.1
20190322132106 43 206 0.0 6.0 0.00 0.06 0.00 40 820.1
20190322131107 43 199 0.0 3.0 0.00 0.06 0.00 40 820.1
20190322130109 42 211 0.0 3.0 0.00 0.06 0.00 40 820.1
20190322125107 42 210 0.0 2.0 0.00 0.06 0.00 40 820.1
20190322124106 42 210 0.0 2.0 0.00 0.06 0.00 40 820.1
20190322123106 42 210 0.0 2.0 0.00 0.06 0.00 40 820.1
20190322122106 42 210 0.0 3.0 0.00 0.06 0.00 40 820.1
20190322121106 42 230 0.0 2.0 0.00 0.06 0.00 40 820.1
20190322120107 41 230 1.0 3.0 0.00 0.06 0.00 40 820.1
20190322115106 41 230 0.0 2.0 0.00 0.06 0.00 40 820.1
20190322114106 42 236 0.0 0.0 0.00 0.06 0.00 40 820.1
20190322113106 42 236 0.0 3.0 0.00 0.06 0.00 40 820.1
20190322112106 42 221 0.0 1.0 0.00 0.06 0.00 40 820.1
20190322111107 42 230 0.0 3.0 0.00 0.06 0.00 40 820.1
20190322110108 42 225 0.0 3.0 0.00 0.06 0.00 40 820.1
20190322105106 42 276 0.0 1.0 0.00 0.06 0.00 40 820.1
20190322104107 42 271 0.0 1.0 0.00 0.06 0.00 40 820.1
20190322103106 42 321 1.0 6.0 0.00 0.06 0.00 40 820.1
20190322102107 42 302 1.0 5.0 0.00 0.06 0.00 40 820.1
20190322101107 42 266 1.0 5.0 0.00 0.06 0.00 40 820.1
20190322100107 41 245 0.0 3.0 0.00 0.06 0.00 40 820.1
20190322095106 41 270 0.0 3.0 0.00 0.06 0.00 40 820.1
20190322094107 41 314 0.0 3.0 0.00 0.06 0.00 40 820.1
20190322093106 41 238 0.0 2.0 0.00 0.06 0.00 40 820.1
20190322092106 41 262 0.0 2.0 0.00 0.06 0.00 40 820.1
20190322091106 41 281 1.0 5.0 0.00 0.06 0.00 40 820.1
20190322090108 41 299 0.0 2.0 0.00 0.06 0.00 40 820.1
20190322085107 40 269 0.0 3.0 0.00 0.06 0.00 40 820.1
20190322084106 40 283 0.0 2.0 0.00 0.06 0.00 40 820.1
20190322083106 40 283 0.0 2.0 0.00 0.06 0.00 40 820.1
20190322082107 40 283 0.0 2.0 0.00 0.06 0.00 40 820.1
20190322081106 40 335 0.0 2.0 0.00 0.06 0.00 40 820.1
20190322080107 40 322 1.0 3.0 0.00 0.06 0.00 40 820.1
20190322075107 41 334 0.0 3.0 0.00 0.06 0.00 40 820.1
20190322074107 41 298 0.0 2.0 0.00 0.06 0.00 40 820.1
20190322073106 41 345 0.0 3.0 0.00 0.06 0.00 40 820.1
20190322072106 41 345 0.0 1.0 0.00 0.06 0.00 40 820.1
20190322071106 41 345 0.0 1.0 0.00 0.06 0.00 40 820.1
20190322070107 41 345 0.0 2.0 0.00 0.06 0.00 40 820.1
20190322065106 41 329 0.0 3.0 0.00 0.06 0.00 40 820.1
20190322064107 41 333 0.0 1.0 0.00 0.06 0.00 40 820.1
20190322063106 42 333 0.0 2.0 0.00 0.06 0.00 40 820.1
20190322062107 42 332 0.0 2.0 0.00 0.06 0.00 40 820.1
20190322061106 42 253 0.0 1.0 0.00 0.06 0.00 40 820.1
20190322060107 43 325 0.0 0.0 0.00 0.06 0.00 40 820.1
20190322055106 43 351 0.0 1.0 0.00 0.06 0.00 40 820.1
20190322054106 43 343 0.0 5.0 0.00 0.06 0.00 40 820.1
20190322053106 43 323 1.0 5.0 0.00 0.06 0.00 40 820.1
20190322052107 43 343 0.0 3.0 0.00 0.06 0.00 40 820.1
20190322051106 43 328 0.0 3.0 0.00 0.06 0.00 40 820.1
20190322050107 43 311 0.0 3.0 0.00 0.06 0.00 40 820.1
20190322045107 43 278 1.0 9.0 0.00 0.06 0.00 40 820.1
20190322044106 43 321 1.0 3.0 0.00 0.06 0.00 40 820.1
20190322043106 43 300 0.0 0.0 0.00 0.06 0.00 40 820.1
20190322042110 44 336 0.0 1.0 0.00 0.06 0.00 40 820.1
20190322041109 44 326 0.0 0.0 0.00 0.06 0.00 40 820.1